Regional Weather Roundup
Issued by NWS Cleveland, OH

Home | Current Version | Previous Version | Graphics & Text | Print | Product List | Glossary On
Versions: 1 2 3 4 5 6 7 8 9 10 11 12 13 14 15 16 17 18 19 20 21 22 23 24 25 26 27 28 29 30 31 32 33 34 35 36 37 38 39 40 41 42 43 44 45 46 47 48 49 50
000
ASUS41 KCLE 201002
RWRCLE
OHIO REGIONAL WEATHER ROUNDUP
NATIONAL WEATHER SERVICE CLEVELAND, OH
600 AM EDT WED AUG 20 2014

NOTE: "FAIR" INDICATES FEW OR NO CLOUDS BELOW 12,000 FEET WITH NO
SIGNIFICANT WEATHER AND/OR OBSTRUCTIONS TO VISIBILITY.

OHZ001>008-015>018-024>027-034-035-043-044-201100-
   NORTHWEST OHIO

CITY           SKY/WX    TMP DP  RH WIND       PRES   REMARKS
DEFIANCE       PTCLDY    67  65  93 SW6       29.82R
FINDLAY        MOCLDY    67  65  93 SW7       29.82S
TOLEDO EXPRESS MOCLDY    67  65  93 SW6       29.81R
TOLEDO EXEC    MOCLDY    67  64  90 SW5       29.82R
LIMA           MOCLDY    69  66  90 SW7       29.85R
$$

OHZ009>014-019>023-028>033-038-089-201100-
   NORTHEAST OHIO

CITY           SKY/WX    TMP DP  RH WIND       PRES   REMARKS
CLE-HOPKINS    TSTM      67  64  90 SE8       29.87R
CLE-LAKEFRONT  LGT RAIN  67  65  93 SE7       29.85R
CUY CO. ARPT   NOT AVBL
LORAIN-ELYRIA  LGT RAIN  69  65  86 S6        29.85R
ASHTABULA      CLOUDY    65  63  93 S6        29.86S
AKRON-CANTON   TSTM      67  64  90 SE6       29.86F FOG
WOOSTER        LGT RAIN  67  64  90 S3        29.89R
MANSFIELD      CLOUDY    66  65  96 SE10      29.87R
YOUNGSTOWN     LGT RAIN  65  63  93 SE10      29.87F
$$

OHZ042-051>053-060>062-070>072-077>081-201100-
  SOUTHWEST OHIO

CITY           SKY/WX    TMP DP  RH WIND       PRES   REMARKS
CINC-COVINGTON PTCLDY    64  62  93 CALM      29.89R FOG
CINC-LUNKEN    PTCLDY    65  65 100 SW5       29.89R
HAMILTON       PTCLDY    64  64 100 CALM      29.89R
DAYTON         CLOUDY    67  62  84 SW7       29.88S
WRIGHT-PAT AFB CLOUDY    67  64  89 S3        29.88R
DAYTON GENERAL CLOUDY    65  64  97 S3        29.88R
WILMINGTON     CLOUDY    64  62  93 SW5       29.89R
$$

OHZ036-037-039>041-045>050-054>059-063>069-073>076-082>088-201100-
  CENTRAL AND SOUTHEAST OHIO

CITY           SKY/WX    TMP DP  RH WIND       PRES   REMARKS
COLUMBUS       CLOUDY    73  67  81 W6        29.85F
OSU AIRPORT    CLOUDY    70  66  87 SW5       29.86S
BOLTON FIELD   NOT AVBL
RICKENBACK AFB CLOUDY    68  63  83 SW9       29.85R
NEWARK         CLOUDY    72  69  90 CALM      29.86R FOG
MARION         CLOUDY    67  64  90 S6        29.86R
LANCASTER      CLOUDY    71  68  90 SW7       29.88R
ZANESVILLE     CLOUDY    74  69  85 SW6       29.86R
NEW PHILLY     CLOUDY    67  65  93 E7        29.87S THUNDER
$$


USA.gov is the U.S. government's official web portal to all federal, state and local government web resources and services.